Flag for Canada Weather past 2 weeks in Colchester County, Nova Scotia, Canada

Now
41 °F

Passing clouds.


Feels Like: 35 °F
Forecast: 39 / 49 °F
Wind: 9 mph from West

Location: Halifax International Airport

Current Time: May 23, 2015 at 6:31:47 AM

Latest Report: May 23, 2015 at 6:00 AM


Visibility: 15 mi

Pressure: 29.90 "Hg

Humidity: 87%

Dew point: 37 °F

Location of Colchester CountyLocation

Historic Weather in Colchester County — Graph

°F

Colchester County temperature yesterday

Maximum temperature yesterday: 52 °F (at 12:00 AM)
Minimum temperature yesterday: 41 °F (at 5:00 AM)
Average temperature yesterday: 45 °F

Past Weeks' High & Low Weather Summary

 TemperatureHumidityPressure
High77 °F (May 10, 4:00 PM)100% (May 10, 12:00 AM)30.46 "Hg (May 10, 12:00 AM)
Low32 °F (May 9, 4:00 AM)22% (May 15, 3:00 PM)29.48 "Hg (May 20, 4:51 PM)
Average51 °F68%30.05 "Hg
* Reported May 8 5:00 AM — May 23 5:00 AM, Colchester County, Weather by CustomWeather, © 2015

Note: Actual official high and low records may vary slightly from our data, if they occured in-between our weather recording intervals... More about our weather records

Advertising

Colchester County weather history for previous 24 hours

 ConditionsComfort  
Time TempWeatherWind HumidityBarometerVisibility
5:00 AM
Sat, May 23
43 °FPassing clouds.13 mph87%29.88 "Hg15 mi
4:00 AM45 °FMostly cloudy.8 mph87%29.87 "Hg15 mi
3:00 AM45 °FMostly cloudy.12 mph93%29.87 "Hg15 mi
2:00 AM45 °FOvercast.10 mph100%29.87 "Hg15 mi
1:00 AM45 °FMostly cloudy.9 mph93%29.86 "Hg15 mi
12:00 AM45 °FMostly cloudy.6 mph93%29.85 "Hg15 mi
11:00 PM
Fri, May 22
45 °FPassing clouds.8 mph100%29.85 "Hg15 mi
10:00 PM45 °FFog.8 mph100%29.83 "Hg1 mi
9:47 PM45 °FFog.7 mph100%29.83 "Hg1 mi
9:00 PM45 °FFog.8 mph100%29.80 "Hg6 mi
8:00 PM45 °FLow clouds.5 mph100%29.79 "Hg8 mi
7:00 PM45 °FLight rain. Low clouds.8 mph100%29.75 "Hg10 mi
6:00 PM45 °FLight rain. Fog.5 mph100%29.76 "Hg6 mi
5:00 PM45 °FLight rain. Fog.9 mph93%29.78 "Hg6 mi
4:00 PM43 °FLight rain. Fog.10 mph100%29.83 "Hg4 mi
3:00 PM45 °FLight rain. Fog.8 mph93%29.83 "Hg6 mi
2:51 PM45 °FMostly cloudy.10 mph93%29.85 "Hg10 mi
2:00 PM45 °FLight rain. Low clouds.9 mph93%29.87 "Hg12 mi
1:00 PM45 °FLight rain. Low clouds.6 mph93%29.92 "Hg10 mi
12:00 PM45 °FLight rain. Overcast.9 mph93%29.94 "Hg10 mi
11:00 AM46 °FSprinkles. Overcast.2 mph87%29.96 "Hg12 mi
10:00 AM45 °FSprinkles. Partly sunny.8 mph93%29.97 "Hg10 mi
9:04 AM46 °FSprinkles. Overcast.14 mph71%29.96 "Hg15 mi
8:00 AM46 °FOvercast.9 mph62%29.96 "Hg15 mi
7:00 AM45 °FMostly cloudy.10 mph71%29.96 "Hg15 mi
6:00 AM43 °FMostly cloudy.9 mph76%29.95 "Hg15 mi
Weather by CustomWeather, © 2015

See weather overviewHow to use our weather pages